Location: La Fredeussais
(48.1780°N, 1.3980°W)
Time: 16:47:47
(UTC+00:00)

IGS 5A - Pass Details

Date: 09 May 2021
Orbit: 583 x 588 km, 97.6° (Epoch: 06 May)

Event Time Altitude Azimuth Distance (km) Brightness Sun altitude
Exits shadow 20:11:11 - 146° (SE) 2,175 5.8 -6.6°
Reaches altitude 10° 20:11:52 10° 143° (SE) 1,902 5.5 -6.7°
Maximum altitude 20:15:48 46° 71° (ENE) 798 3.9 -7.2°
Drops below altitude 10° 20:19:47 10° 358° (N) 1,918 6.7 -7.7°
Sets 20:22:00 0° 353° (N) 2,823 7.7 -8.0°
